Weather History for Alturas, CA

Change the Weather History Date:

Tuesday, February 5, 2013

  Actual Average Record
Temperature  
Mean Temperature 37 °F 32 °F  
Max Temperature 47 °F 44 °F 64 °F (1995)
Min Temperature 26 °F 20 °F -33 °F (1989)
Degree Days  
Heating Degree Days 28 33  
Month to date heating degree days 144 165  
Since 1 July heating degree days 3827 4163  
Cooling Degree Days 0 0  
Month to date cooling degree days 0 0  
Year to date cooling degree days 0 0  
Moisture  
Dew Point 29 °F    
Average Humidity 75    
Maximum Humidity 96    
Minimum Humidity 53    
Precipitation  
Precipitation 0.06 in 0.06 in 0.35 in (1932)
Month to date precipitation 0.06 0.23  
Year to date precipitation 0.54 1.88  
Sea Level Pressure  
Sea Level Pressure 30.04 in    
Wind  
Wind Speed 5 mph (West)    
Max Wind Speed 16 mph    
Max Gust Speed 22 mph    
Visibility 9 miles    
Events Rain , Snow    
T = Trace of Precipitation, MM = Missing Value Source: NWS Daily Summary

Daily Weather History Graph

Daily Weather History Graph

Search for Another Location

Airport:

Trip Planner

Search our weather history database for the weather conditions in past years. The results will help you decide how hot, cold, wet, or windy it might be!

Date:

Astronomy

Feb. 05, 2013 Rise Set
Actual Time 7:09 AM PST 5:23 PM PST
Civil Twilight 6:40 AM PST 5:52 PM PST
Nautical Twilight 6:07 AM PST 6:25 PM PST
Astronomical Twilight 5:35 AM PST 6:58 PM PST
Moon 2:58 AM PST (2/5) 12:44 PM PST (2/5)
Length of Visible Light 11h 12m
Length of Day
10h 14m
Waning Crescent, 25% of the Moon is Illuminated
Feb 5
Waning Crescent
Feb 9
New
Feb 17
First Quarter
Feb 25
Full
Mar 4
Last Quarter

Hourly Weather History & Observations

Time (PST) Temp. Windchill Dew Point Humidity Pressure Visibility Wind Dir Wind Speed Gust Speed Precip Events Conditions
12:55 AM 28.9 °F - 25.0 °F 85% 30.06 in 8.0 mi Calm Calm - N/A   Clear
1:55 AM 27.0 °F - 24.1 °F 89% 30.06 in 4.0 mi Calm Calm - N/A   Clear
2:55 AM 27.0 °F 23.0 °F 24.1 °F 89% 30.02 in 7.0 mi SE 3.5 mph - N/A   Clear
3:55 AM 27.0 °F 21.6 °F 25.0 °F 92% 30.00 in 10.0 mi NNW 4.6 mph - N/A   Clear
4:55 AM 27.0 °F - 24.1 °F 89% 30.01 in 10.0 mi Calm Calm - N/A   Clear
5:55 AM 26.1 °F - 24.1 °F 92% 30.03 in 9.0 mi Calm Calm - N/A   Clear
6:55 AM 28.0 °F - 26.1 °F 92% 30.04 in 10.0 mi Calm Calm - N/A   Clear
7:55 AM 28.0 °F - 25.0 °F 88% 30.05 in 7.0 mi Calm Calm - N/A   Clear
8:55 AM 32.0 °F - 27.0 °F 82% 30.06 in 10.0 mi Calm Calm - N/A   Clear
9:55 AM 34.0 °F 31.0 °F 28.0 °F 79% 30.05 in 10.0 mi West 3.5 mph - N/A   Clear
10:55 AM 43.0 °F 37.2 °F 30.0 °F 60% 30.02 in 10.0 mi West 10.4 mph - N/A   Clear
11:55 AM 43.0 °F 36.4 °F 30.9 °F 62% 30.01 in 10.0 mi West 12.7 mph - N/A   Clear
12:55 PM 46.0 °F 39.6 °F 30.9 °F 56% 29.98 in 10.0 mi West 15.0 mph - N/A   Clear
1:55 PM 46.0 °F 41.9 °F 30.9 °F 56% 29.97 in 10.0 mi WSW 8.1 mph - N/A   Clear
2:55 PM 46.0 °F 39.6 °F 30.9 °F 56% 29.96 in 10.0 mi WSW 15.0 mph - N/A   Clear
3:55 PM 45.0 °F 38.9 °F 30.9 °F 58% 29.98 in 10.0 mi West 12.7 mph 19.6 mph N/A   Clear
4:55 PM 41.0 °F 35.2 °F 32.0 °F 70% 30.01 in 10.0 mi West 9.2 mph - N/A   Overcast
5:55 PM 39.0 °F 35.7 °F 30.9 °F 73% 30.04 in 10.0 mi WSW 4.6 mph - N/A   Overcast
6:38 PM 35.6 °F 28.6 °F 33.8 °F 93% 30.00 in 8.0 mi NNW 9.2 mph - 0.00 in Rain Light Rain
6:55 PM 35.1 °F 32.2 °F 33.1 °F 92% 30.06 in 10.0 mi North 3.5 mph - 0.01 in   Overcast
7:55 PM 36.0 °F 30.3 °F 33.1 °F 89% 30.08 in 10.0 mi West 6.9 mph - 0.00 in   Overcast
8:22 PM 33.8 °F 30.8 °F 32.0 °F 93% 30.03 in 2.5 mi WNW 3.5 mph - 0.02 in Snow Light Snow
8:45 PM 33.8 °F - 32.0 °F 93% 30.04 in 7.0 mi Calm Calm - 0.04 in Snow Light Snow
8:55 PM 33.1 °F 28.7 °F 32.0 °F 96% 30.08 in 10.0 mi South 4.6 mph - 0.04 in   Overcast
9:53 PM 33.8 °F 30.8 °F 32.0 °F 93% 30.06 in 9.0 mi Variable 3.5 mph - 0.01 in   Overcast
9:55 PM 33.1 °F - 32.0 °F 96% 30.09 in 10.0 mi Calm Calm - 0.01 in   Overcast
10:55 PM 33.1 °F - 32.0 °F 96% 30.10 in 10.0 mi Calm Calm - N/A   Overcast
11:55 PM 33.1 °F - 30.9 °F 92% 30.12 in 10.0 mi Calm Calm - N/A   Mostly Cloudy